Theta_e
321 320 319 318 318 317 316 315 316 317 318 319 320 320 321 320 320 320 320 320 320 321 320 321 323 322 323 321 319 331 340 334 323 321 317 315 313 313 312 315 317 315 320 320 319 319 325
321 320 319 318 319 318 316 315 316 317 318 318 319 320 320 320 319 319 319 319 318 319 320 322 323 320 325 313 329 326 323 321 320 318 317 316 314 316 315 315 315 317 319 319 319 320 322
321 320 320 319 319 318 316 315 316 317 318 318 319 319 319 319 319 319 319 318 317 318 320 323 323 324 321 316 328 326 324 322 321 318 315 318 319 315 316 313 318 317 315 317 318 321 319
320 321 321 320 319 318 316 315 316 316 318 318 319 318 319 318 318 318 318 317 317 319 322 322 323 326 318 323 329 328 327 323 321 320 318 319 320 318 316 318 315 312 314 311 317 320 321
321 321 320 320 319 318 317 317 316 316 317 318 319 318 318 318 318 318 317 316 317 321 323 323 325 325 315 322 322 327 324 318 317 318 318 318 318 314 315 311 309 311 307 310 314 320 322
322 321 321 320 319 317 317 316 316 317 317 318 318 318 317 317 317 317 315 315 322 319 321 326 323 316 318 314 323 324 323 321 314 314 314 315 313 310 311 308 302 306 308 311 311 317 320
322 321 320 320 319 318 317 316 316 317 318 318 318 318 317 316 316 315 316 321 316 317 318 312 314 313 315 320 322 321 323 318 316 313 308 312 308 306 308 310 310 311 310 310 313 317 317
321 321 320 320 320 318 317 316 316 317 318 318 318 318 317 316 316 315 317 313 310 312 307 315 315 315 317 317 313 317 323 314 312 307 311 310 306 311 312 311 309 309 308 309 314 316 316
321 320 320 319 319 317 317 316 316 316 317 317 317 316 316 316 315 315 317 312 316 316 309 313 314 313 315 317 313 314 319 316 312 309 309 308 310 312 309 308 307 308 307 309 309 313 314
320 320 319 318 317 317 317 316 316 316 317 318 317 316 315 314 313 319 315 316 316 319 306 309 310 312 314 315 311 320 321 318 314 309 310 309 312 308 308 307 308 304 309 309 309 309 303
316 320 319 318 317 317 316 316 316 316 317 318 317 317 316 314 319 315 316 319 315 319 297 311 311 319 314 311 313 314 321 318 311 311 310 308 308 306 306 307 309 306 310 308 308 308 308
316 316 319 317 317 316 315 314 315 316 316 317 317 316 315 320 322 320 320 318 315 303 295 307 311 309 308 310 312 315 316 318 318 313 311 310 311 310 309 310 310 311 308 308 308 306 300
315 315 317 317 316 315 314 314 314 315 316 316 316 316 315 320 316 322 319 311 301 297 307 305 306 309 307 306 309 311 310 310 308 305 305 309 308 310 311 307 311 310 307 300 298 298 297
315 315 315 317 316 315 314 313 313 315 315 316 315 312 316 321 323 320 317 304 295 302 303 309 307 308 306 308 308 308 308 307 311 310 307 304 301 308 310 308 307 308 307 302 297 298 301
315 315 314 316 316 315 313 313 313 313 314 314 312 320 320 322 321 323 310 297 299 303 305 305 308 305 305 308 308 307 307 307 310 311 305 304 304 309 309 311 310 308 306 311 305 306 302
315 314 314 314 315 314 313 312 313 314 314 314 318 318 317 322 324 319 305 297 303 305 305 307 304 307 304 305 305 306 306 309 308 311 314 309 303 308 310 312 312 310 313 305 305 297 296
314 314 314 315 314 314 313 313 313 314 313 312 317 312 319 322 321 311 299 301 304 307 306 306 306 306 308 306 307 305 307 311 311 310 312 311 308 306 309 307 306 308 306 307 308 305 300
315 315 315 314 314 314 313 313 313 313 311 308 314 306 319 319 305 307 302 304 299 305 308 307 308 309 308 308 307 307 307 310 314 314 308 312 310 304 306 311 312 311 308 310 303 302 305
313 315 315 314 314 313 313 312 313 312 309 317 310 310 318 317 301 302 306 304 305 305 306 306 306 309 311 309 307 308 312 316 317 314 313 314 308 302 303 309 311 307 309 310 309 311 305
311 313 314 313 313 313 312 313 313 313 311 312 310 303 310 312 311 308 304 303 303 307 306 307 308 310 310 308 313 310 311 313 316 316 316 318 312 307 299 305 310 306 307 309 309 305 305
310 311 314 313 313 313 313 313 313 312 310 311 311 306 309 302 305 308 308 305 302 302 307 308 307 308 309 307 308 309 311 311 312 310 313 315 307 308 308 307 308 307 307 307 307 308 305
311 310 312 314 313 313 313 313 313 311 309 309 307 307 310 310 308 307 303 306 303 305 306 305 305 307 310 309 309 308 311 311 310 312 313 313 307 308 305 306 306 304 306 307 308 308 308
311 310 311 313 314 314 313 313 314 311 309 311 316 315 313 306 308 305 306 306 306 308 309 310 308 308 306 311 313 316 316 316 315 313 312 310 309 305 300 305 304 301 305 307 309 311 310
310 311 310 313 313 314 314 314 314 312 310 315 314 314 308 304 306 306 306 308 307 308 308 310 311 309 314 320 317 317 316 315 314 315 317 309 309 307 302 304 295 310 315 313 309 313 318
309 309 311 312 314 314 314 314 314 313 312 314 318 315 309 303 306 306 307 307 309 311 311 310 313 319 323 316 309 308 307 308 310 312 313 315 311 305 301 300 304 309 312 311 309 310 318
308 309 311 311 313 314 314 314 314 313 312 314 318 318 313 306 305 310 308 309 308 309 310 313 320 325 323 312 308 302 299 303 303 308 314 312 314 307 305 298 295 311 315 317 314 305 317
309 310 311 312 314 314 315 315 314 313 312 315 317 323 314 306 314 314 309 309 315 312 310 315 318 318 322 310 304 301 301 306 301 302 305 307 308 304 302 301 307 315 316 316 301 306 319
309 311 311 313 314 315 315 315 314 313 313 313 315 322 316 307 315 316 314 314 313 315 308 318 316 317 313 308 305 304 305 306 304 307 306 303 302 302 304 301 298 316 315 308 314 318 318
310 310 311 313 313 314 315 315 314 313 313 310 314 320 320 311 314 318 318 318 315 315 314 321 318 317 318 314 311 307 307 307 306 299 312 303 311 310 310 309 313 315 314 317 316 311 311
Wind_Speed
11 11 12 12 11 10 9 8 8 8 9 11 14 16 16 16 18 21 22 21 20 20 18 16 12 6 8 10 4 12 10 9 13 13 14 14 15 16 16 14 14 14 14 7 4 3 7
11 12 12 12 11 10 11 10 9 8 8 11 13 16 17 18 19 19 21 21 20 19 17 14 8 3 9 14 8 15 16 15 14 14 14 14 11 17 12 13 13 14 18 8 6 7 8
14 14 13 12 11 10 10 11 11 10 9 10 12 15 17 19 20 22 22 20 18 17 14 10 6 8 13 2 3 13 14 14 13 13 12 12 9 8 13 10 11 12 14 13 11 12 7
15 14 13 12 12 12 11 11 11 10 11 11 12 14 16 19 21 22 24 20 18 16 10 7 6 11 11 5 3 11 12 11 8 9 10 7 6 12 14 12 9 14 15 16 16 9 8
15 14 14 13 13 12 11 10 10 10 10 11 12 14 16 19 20 23 25 21 17 11 8 7 8 11 7 6 11 11 10 10 10 9 7 3 10 14 14 12 14 15 14 18 11 10 8
17 16 15 15 14 13 12 11 11 10 11 11 11 13 15 19 21 24 24 20 3 6 8 9 10 9 9 10 10 10 9 7 12 12 12 13 10 12 13 15 15 17 20 17 15 15 10
19 18 17 16 15 14 13 12 11 11 11 11 11 13 15 18 20 24 17 8 5 9 9 16 7 10 3 7 7 11 12 12 15 14 15 17 14 14 18 18 19 13 14 20 9 8 17
21 20 19 18 17 15 13 12 12 11 11 10 11 13 16 19 20 22 15 8 6 7 12 15 14 12 8 2 11 14 15 14 13 16 18 11 16 15 14 8 12 12 16 16 13 14 8
23 22 21 20 18 16 15 13 12 11 11 10 10 12 15 19 22 11 5 6 8 8 9 7 10 16 14 13 13 18 18 18 14 18 17 16 7 15 3 10 12 16 18 15 18 10 13
23 23 22 21 19 17 16 15 13 12 11 10 10 12 13 23 6 8 3 7 9 5 8 14 12 10 10 15 14 13 19 15 12 14 12 13 14 6 10 14 12 15 15 17 18 12 11
16 24 24 22 20 19 17 16 14 13 11 10 10 11 12 6 13 8 8 9 9 6 8 15 12 10 14 18 14 11 16 15 14 9 4 13 11 11 14 14 13 14 12 11 17 15 15
16 18 24 23 22 20 18 16 14 12 11 10 10 10 12 7 10 7 9 9 6 9 6 9 10 13 17 20 12 20 15 10 10 9 13 9 3 10 16 12 6 10 9 11 15 16 18
18 17 21 25 23 21 19 17 15 13 11 10 10 9 8 9 8 9 9 8 9 12 7 9 15 15 19 15 15 14 19 17 11 9 13 14 13 10 10 11 10 11 11 10 12 13 16
19 18 18 25 25 23 20 18 16 13 12 11 11 8 10 10 8 8 8 9 11 10 8 5 2 9 14 19 17 17 19 16 17 15 15 13 15 16 10 14 11 15 14 12 13 12 13
19 19 19 23 26 21 20 19 15 13 12 10 6 10 12 10 6 5 9 12 12 12 6 3 12 12 15 14 11 15 15 17 17 12 13 6 4 4 5 12 13 12 16 15 17 17 14
18 20 21 22 26 22 19 18 18 14 12 10 9 11 12 10 6 7 9 16 16 2 5 10 13 15 15 14 12 13 14 9 5 13 11 5 5 9 9 9 10 14 6 10 9 14 15
15 20 20 22 22 23 20 18 18 14 11 6 9 8 9 9 7 8 11 16 16 4 5 8 8 5 11 17 15 16 14 8 5 12 8 9 8 9 8 12 15 9 13 12 13 11 12
14 9 14 21 20 17 16 17 16 15 9 6 11 12 9 9 10 10 13 18 6 7 10 7 6 11 6 2 13 13 9 6 2 6 13 7 6 11 12 4 6 10 14 10 7 9 11
17 3 19 23 20 18 18 18 17 15 18 7 10 7 5 8 11 12 13 9 8 12 11 9 7 7 5 9 7 4 13 6 6 7 4 5 7 10 14 11 10 9 9 7 4 7 12
15 10 14 22 23 18 17 17 15 15 10 5 10 8 7 8 13 11 14 12 15 12 11 8 5 4 8 5 6 8 14 5 5 5 4 3 3 11 8 5 9 6 5 6 5 6 11
11 10 11 19 17 16 16 16 16 12 9 6 5 9 7 12 12 11 10 9 14 12 12 13 9 10 10 9 12 13 14 11 9 6 4 4 7 10 11 8 11 11 11 10 12 12 12
12 8 6 19 21 18 14 15 14 11 10 7 6 4 3 4 11 13 8 12 14 14 13 13 12 12 5 8 8 11 14 12 9 9 6 3 6 7 12 14 13 13 11 11 13 14 15
10 6 4 17 16 16 15 15 14 14 13 7 2 5 7 10 9 11 11 12 12 9 10 13 16 13 10 9 4 7 6 6 4 4 5 3 7 4 12 11 1 10 7 5 8 11 14
11 8 8 9 18 15 17 16 15 16 17 10 1 4 6 7 11 12 13 12 11 9 10 13 8 16 3 5 4 2 7 6 6 4 3 3 4 7 9 8 11 12 9 9 7 10 15
12 12 12 11 24 22 17 17 16 14 11 6 2 6 3 2 8 4 7 11 6 6 9 5 9 4 6 9 10 8 7 5 5 1 3 1 6 6 5 10 7 15 10 10 8 7 14
16 15 15 11 22 21 20 16 15 12 10 9 2 5 5 2 1 7 11 8 8 11 13 14 5 3 7 8 10 10 10 11 11 10 3 5 5 8 6 6 7 12 9 8 8 6 14
16 11 17 15 23 20 19 17 15 14 10 7 2 4 5 2 3 1 5 4 3 7 10 10 9 8 11 10 13 11 12 3 7 8 10 10 8 11 10 7 7 11 11 9 8 8 16
12 14 11 24 23 21 20 18 17 13 9 6 3 3 5 4 7 4 4 7 9 3 4 9 6 6 10 12 11 7 2 5 7 5 4 5 5 8 8 11 8 17 2 8 9 10 10
13 14 13 17 20 20 19 18 17 13 9 5 2 1 5 5 6 4 4 3 6 7 7 4 3 3 5 3 3 7 4 6 5 3 1 6 5 5 6 5 7 9 9 8 9 6 7
Wind_Direction
263 266 270 275 280 284 286 293 302 312 320 325 321 323 324 321 318 318 315 316 314 311 313 310 304 284 262 234 66 124 143 160 187 216 215 208 211 213 221 209 216 227 253 218 197 238 250
260 263 264 264 265 269 279 286 291 299 315 317 319 321 321 320 317 314 309 311 308 306 306 300 294 272 252 265 93 138 161 173 199 216 214 215 215 220 256 239 223 215 266 212 230 238 197
260 261 262 262 258 259 268 279 289 298 305 309 312 314 318 319 315 314 310 308 301 301 298 290 273 269 269 317 91 159 175 198 213 219 217 221 246 202 231 244 241 263 249 239 236 233 211
243 244 251 255 255 252 251 260 271 286 297 303 309 312 314 311 313 311 309 305 301 295 275 264 256 267 275 98 183 181 190 197 206 223 241 204 255 247 260 243 218 226 239 236 218 196 202
238 236 240 242 249 248 248 252 262 272 282 294 301 306 310 310 312 310 308 302 291 268 233 228 241 227 236 134 197 184 199 195 193 198 224 191 234 231 214 243 226 211 226 230 191 194 207
233 232 228 232 236 241 244 247 252 260 272 282 293 300 305 306 312 312 307 291 259 229 223 225 263 258 213 204 144 169 193 250 189 185 192 210 216 220 236 215 224 211 223 224 241 165 230
232 233 229 228 228 233 237 241 248 254 265 279 295 302 304 308 313 309 319 290 250 188 266 287 317 262 120 115 157 193 187 206 195 195 207 206 218 215 219 225 246 253 258 224 223 212 190
229 227 225 225 224 224 226 233 242 252 262 277 294 302 307 311 311 308 287 12 34 335 297 278 255 243 288 349 194 189 179 204 196 206 215 184 233 240 237 254 243 280 259 269 241 199 208
228 225 222 221 220 218 219 224 231 243 257 271 287 298 307 310 314 288 333 14 307 307 264 272 211 220 200 207 223 177 195 219 200 216 200 230 232 224 186 222 242 238 248 240 260 175 231
241 221 220 217 214 211 215 218 223 230 245 261 277 294 311 317 296 340 255 340 321 340 267 158 187 198 181 201 219 188 197 210 211 232 207 234 255 245 208 241 224 245 225 257 261 243 222
262 236 215 214 208 209 206 217 217 223 233 247 269 288 305 330 312 296 2 318 331 246 259 150 131 121 182 204 169 194 189 220 237 215 223 223 223 195 226 230 227 257 288 234 255 258 252
249 252 226 205 208 205 204 204 214 218 227 236 258 281 312 230 238 269 313 308 256 232 243 151 142 177 180 210 174 161 190 241 258 219 225 284 232 221 237 242 243 264 249 252 251 246 244
246 245 239 206 200 201 199 198 210 207 222 235 250 268 271 313 283 344 310 260 231 247 112 153 179 171 184 187 190 170 190 198 206 204 220 216 200 227 260 205 198 232 224 223 218 224 248
244 240 240 215 196 198 193 191 195 209 201 233 253 274 235 250 291 295 274 234 249 211 225 41 287 192 200 176 201 192 195 205 218 222 270 202 199 195 187 236 208 204 242 256 256 239 250
246 246 235 229 189 189 190 185 189 197 204 213 265 235 242 218 228 263 252 228 219 261 5 238 187 203 205 182 199 195 216 213 197 221 256 214 225 111 222 218 251 226 223 245 276 281 275
251 244 238 232 178 177 191 179 179 197 202 188 241 232 229 147 198 228 239 251 255 59 342 252 250 211 181 189 208 201 190 200 196 192 246 305 210 188 168 243 248 268 313 236 230 262 275
290 244 239 203 176 171 182 180 180 182 200 163 245 217 112 168 195 220 234 231 229 173 276 270 260 234 256 181 209 200 172 140 226 190 214 244 260 153 171 216 238 181 233 244 280 305 306
333 246 183 161 161 170 180 178 182 174 152 192 243 222 138 174 209 222 233 234 10 254 210 254 295 303 267 194 217 196 142 140 181 172 208 207 261 253 212 75 8 323 316 324 250 232 242
353 239 190 160 165 166 176 177 181 172 187 209 232 187 158 216 226 227 217 237 218 233 221 213 227 268 273 219 234 169 95 88 170 211 38 145 219 242 242 192 209 231 237 267 278 317 278
338 352 160 164 161 166 178 176 180 189 198 266 229 183 147 208 259 296 201 207 216 230 230 214 271 239 206 192 243 158 121 129 142 94 359 301 267 281 103 238 269 267 260 210 222 283 285
315 334 173 168 167 172 171 174 186 180 160 248 251 210 174 184 211 218 263 218 208 189 218 206 221 243 210 207 189 182 147 149 157 147 195 303 267 275 293 262 247 272 275 285 268 245 253
301 302 286 180 176 171 175 181 186 164 145 253 237 246 164 124 205 201 161 225 214 207 189 202 229 196 215 233 216 158 147 185 174 173 175 150 285 293 292 289 278 278 274 272 273 282 281
317 276 285 171 162 166 182 184 179 167 192 228 108 316 275 126 189 202 196 224 213 215 204 228 203 231 201 223 28 359 83 78 100 171 175 240 306 261 277 288 300 262 273 342 357 339 334
316 289 218 203 177 179 184 183 179 182 207 315 290 279 244 184 207 191 211 214 200 192 226 218 216 217 109 114 188 188 126 145 143 88 12 260 253 282 271 299 247 80 36 52 341 46 16
298 287 218 224 177 182 184 181 181 188 202 280 212 265 258 229 227 137 207 189 199 181 248 190 202 39 288 178 186 167 176 198 175 40 161 275 278 277 265 248 184 146 71 21 4 38 26
287 280 207 198 181 172 181 174 171 173 208 271 65 323 292 249 198 1 198 205 207 198 187 215 66 250 230 215 206 189 218 206 194 152 184 180 248 270 263 275 272 65 22 358 323 232 7
247 240 184 200 178 176 167 163 161 170 207 273 69 313 285 253 147 263 353 284 231 304 170 158 155 179 204 223 210 207 224 181 189 203 167 198 231 233 240 248 105 21 356 310 266 9 350
178 166 158 159 159 164 166 160 161 165 206 260 82 30 323 279 88 21 24 13 323 300 299 115 186 193 191 230 222 216 172 229 227 72 225 250 256 251 280 249 211 353 73 4 359 339 347
137 146 143 154 155 160 155 157 148 159 206 271 143 142 274 276 43 337 344 331 322 356 324 189 48 145 11 285 47 17 285 163 272 198 348 235 344 346 22 61 75 31 71 62 54 43 14